BOE1Z GOBD-GABS

Flight info

Callsign BOE1Z
Flight time 1h 56m
Altitude 35000
Route NURAS A601 TD UA601 ENINO A601 BIDOK
Aircraft B744/H-SDE3FGHIM1M2RWXY/LB1

Departure

Time 2026-05-06 18:06
Airport Blaise Diagne International Airport (GOBD)

Arrival

Time 2026-05-06 20:03
Airport Modibo Keita International Airport (GABS)
Time Latitude Longitude Altitude Speed Heading
2026-05-06 17:53 14.65523 -17.07709 287 ft 0 kts 269°
2026-05-06 17:59 14.65523 -17.07706 287 ft 2 kts 269°
2026-05-06 17:59 14.65523 -17.07690 286 ft 2 kts 269°
2026-05-06 17:59 14.65524 -17.07674 286 ft 2 kts 268°
2026-05-06 18:00 14.65524 -17.07665 286 ft 2 kts 268°
2026-05-06 18:00 14.65526 -17.07650 286 ft 2 kts 250°
2026-05-06 18:00 14.65532 -17.07636 287 ft 2 kts 235°
2026-05-06 18:00 14.65542 -17.07625 287 ft 2 kts 220°
2026-05-06 18:01 14.65554 -17.07616 287 ft 2 kts 205°
2026-05-06 18:01 14.65568 -17.07612 288 ft 2 kts 190°
2026-05-06 18:01 14.65578 -17.07610 288 ft 0 kts 179°
2026-05-06 18:01 14.65583 -17.07610 288 ft 0 kts 178°
2026-05-06 18:02 14.65582 -17.07610 288 ft 0 kts 178°
2026-05-06 18:03 14.65580 -17.07610 288 ft 0 kts 178°
2026-05-06 18:03 14.65570 -17.07610 288 ft 5 kts 175°
2026-05-06 18:04 14.65528 -17.07561 286 ft 11 kts 102°
2026-05-06 18:04 14.65524 -17.07527 286 ft 0 kts 89°
2026-05-06 18:04 14.65525 -17.07495 286 ft 9 kts 89°
2026-05-06 18:05 14.65527 -17.07412 286 ft 16 kts 88°
2026-05-06 18:05 14.65543 -17.07298 286 ft 17 kts 57°
2026-05-06 18:05 14.65703 -17.07269 288 ft 34 kts 359°
2026-05-06 18:05 14.66044 -17.07272 295 ft 72 kts
2026-05-06 18:06 14.66824 -17.07281 304 ft 153 kts 358°
2026-05-06 18:06 14.68116 -17.07306 565 ft 205 kts 359°
2026-05-06 18:06 14.69450 -17.07275 1671 ft 192 kts
2026-05-06 18:06 14.70843 -17.07279 1872 ft 198 kts 358°
2026-05-06 18:07 14.72186 -17.07293 2360 ft 194 kts 359°
2026-05-06 18:07 14.73628 -17.07299 2934 ft 217 kts 358°
2026-05-06 18:07 14.75149 -17.07314 3485 ft 223 kts 358°
2026-05-06 18:07 14.76723 -17.07333 3997 ft 232 kts 357°
2026-05-06 18:08 14.78380 -17.07356 4514 ft 243 kts 358°
2026-05-06 18:08 14.80081 -17.07379 5102 ft 248 kts
2026-05-06 18:08 14.81781 -17.07015 5665 ft 256 kts 21°
2026-05-06 18:08 14.83272 -17.05969 6256 ft 263 kts 45°
2026-05-06 18:09 14.84293 -17.04382 6862 ft 269 kts 66°
2026-05-06 18:09 14.84676 -17.02506 7486 ft 272 kts 89°
2026-05-06 18:09 14.84363 -17.00590 8132 ft 273 kts 111°
2026-05-06 18:09 14.83396 -16.98916 8768 ft 274 kts 131°
2026-05-06 18:10 14.82218 -16.97383 9392 ft 275 kts 119°
2026-05-06 18:10 14.81582 -16.95534 10003 ft 277 kts 98°
2026-05-06 18:10 14.81598 -16.93558 10617 ft 278 kts 82°
2026-05-06 18:10 14.81874 -16.91593 11083 ft 283 kts 82°
2026-05-06 18:11 14.82111 -16.89538 11283 ft 288 kts 83°
2026-05-06 18:11 14.82328 -16.87489 11320 ft 288 kts 88°
2026-05-06 18:11 14.82087 -16.85458 11189 ft 287 kts 108°
2026-05-06 18:11 14.81272 -16.83580 11084 ft 284 kts 117°
2026-05-06 18:12 14.80406 -16.81763 11004 ft 281 kts 115°
2026-05-06 18:12 14.79592 -16.79946 10953 ft 281 kts 115°
2026-05-06 18:12 14.78775 -16.78123 10956 ft 281 kts 115°
2026-05-06 18:12 14.77955 -16.76286 10949 ft 280 kts 115°
2026-05-06 18:13 14.77152 -16.74468 10918 ft 280 kts 115°
2026-05-06 18:13 14.76337 -16.72603 10914 ft 282 kts 115°
2026-05-06 18:13 14.75530 -16.70759 10925 ft 282 kts 115°
2026-05-06 18:13 14.74708 -16.68878 10818 ft 294 kts 114°
2026-05-06 18:14 14.73856 -16.66930 10802 ft 301 kts 114°
2026-05-06 18:14 14.72994 -16.64944 10827 ft 304 kts 114°
2026-05-06 18:14 14.72130 -16.62949 10883 ft 307 kts 114°
2026-05-06 18:14 14.71252 -16.60937 10900 ft 306 kts 114°
2026-05-06 18:15 14.70391 -16.58948 10879 ft 307 kts 114°
2026-05-06 18:15 14.69510 -16.56914 10864 ft 306 kts 114°
2026-05-06 18:15 14.68644 -16.54918 10870 ft 306 kts 114°
2026-05-06 18:15 14.67774 -16.52908 10851 ft 305 kts 114°
2026-05-06 18:16 14.66904 -16.50908 10834 ft 305 kts 114°
2026-05-06 18:16 14.66043 -16.48920 10839 ft 305 kts 114°
2026-05-06 18:16 14.65177 -16.46919 10864 ft 306 kts 114°
2026-05-06 18:16 14.64307 -16.44908 10850 ft 306 kts 114°
2026-05-06 18:17 14.63439 -16.42910 10843 ft 305 kts 114°
2026-05-06 18:17 14.62575 -16.40901 10832 ft 305 kts 114°
2026-05-06 18:17 14.61724 -16.38905 10834 ft 305 kts 114°
2026-05-06 18:17 14.60852 -16.36902 10856 ft 306 kts 115°
2026-05-06 18:18 14.59970 -16.34890 10854 ft 306 kts 115°
2026-05-06 18:18 14.59108 -16.32904 10862 ft 307 kts 115°
2026-05-06 18:18 14.58226 -16.30874 10855 ft 307 kts 115°
2026-05-06 18:18 14.57362 -16.28892 10866 ft 306 kts 115°
2026-05-06 18:19 14.56479 -16.26875 10861 ft 305 kts 115°
2026-05-06 18:19 14.55626 -16.24905 10849 ft 304 kts 115°
2026-05-06 18:19 14.54754 -16.22907 10865 ft 304 kts 114°
2026-05-06 18:19 14.53887 -16.20910 10839 ft 304 kts 115°
2026-05-06 18:20 14.53034 -16.18934 10833 ft 304 kts 115°
2026-05-06 18:20 14.52161 -16.16935 10848 ft 304 kts 115°
2026-05-06 18:20 14.51286 -16.14928 10854 ft 304 kts 115°
2026-05-06 18:20 14.50422 -16.12956 10856 ft 304 kts 115°
2026-05-06 18:21 14.49553 -16.10952 10863 ft 305 kts 115°
2026-05-06 18:21 14.48689 -16.08967 10845 ft 305 kts 115°
2026-05-06 18:21 14.47828 -16.06982 10828 ft 305 kts 115°
2026-05-06 18:21 14.46955 -16.04987 10836 ft 303 kts 115°
2026-05-06 18:22 14.46082 -16.02999 10832 ft 303 kts 115°
2026-05-06 18:22 14.45229 -16.01035 10827 ft 302 kts 115°
2026-05-06 18:22 14.44370 -15.99050 10832 ft 301 kts 115°
2026-05-06 18:22 14.43512 -15.97100 10832 ft 301 kts 115°
2026-05-06 18:23 14.42659 -15.95132 10831 ft 302 kts 115°
2026-05-06 18:23 14.41789 -15.93146 10830 ft 302 kts 115°
2026-05-06 18:23 14.40924 -15.91170 10830 ft 303 kts 115°
2026-05-06 18:23 14.40062 -15.89195 10832 ft 303 kts 115°
2026-05-06 18:24 14.39190 -15.87199 10831 ft 302 kts 115°
2026-05-06 18:24 14.38332 -15.85242 10827 ft 302 kts 115°
2026-05-06 18:24 14.37468 -15.83258 10823 ft 302 kts 115°
2026-05-06 18:24 14.36611 -15.81305 10814 ft 302 kts 115°
2026-05-06 18:25 14.35748 -15.79331 10815 ft 301 kts 115°
2026-05-06 18:25 14.34885 -15.77351 10822 ft 301 kts 115°
2026-05-06 18:25 14.34031 -15.75395 10821 ft 301 kts 115°
2026-05-06 18:25 14.33160 -15.73419 10819 ft 301 kts 115°
2026-05-06 18:26 14.32304 -15.71465 10817 ft 301 kts 114°
2026-05-06 18:26 14.31432 -15.69477 10812 ft 301 kts 115°
2026-05-06 18:26 14.30571 -15.67516 10812 ft 301 kts 114°
2026-05-06 18:26 14.29722 -15.65558 10809 ft 300 kts 114°
2026-05-06 18:27 14.28855 -15.63593 10807 ft 300 kts 115°
2026-05-06 18:27 14.28004 -15.61647 10811 ft 300 kts 115°
2026-05-06 18:27 14.27130 -15.59668 10811 ft 301 kts 114°
2026-05-06 18:27 14.26265 -15.57700 10807 ft 303 kts 114°
2026-05-06 18:28 14.25397 -15.55726 10797 ft 305 kts 114°
2026-05-06 18:28 14.24516 -15.53722 10804 ft 305 kts 114°
2026-05-06 18:28 14.23650 -15.51725 10814 ft 305 kts 114°
2026-05-06 18:28 14.22790 -15.49740 10815 ft 302 kts 114°
2026-05-06 18:29 14.21947 -15.47771 10806 ft 300 kts 112°
2026-05-06 18:29 14.21332 -15.45729 10786 ft 299 kts 104°
2026-05-06 18:29 14.20837 -15.43655 10789 ft 299 kts 105°
2026-05-06 18:29 14.20305 -15.41586 10804 ft 300 kts 105°
2026-05-06 18:30 14.19760 -15.39485 10815 ft 301 kts 105°
2026-05-06 18:30 14.19217 -15.37406 10819 ft 302 kts 105°
2026-05-06 18:30 14.18676 -15.35336 10820 ft 302 kts 104°
2026-05-06 18:30 14.18426 -15.33186 10790 ft 302 kts 87°
2026-05-06 18:31 14.18868 -15.31099 10782 ft 302 kts 68°
2026-05-06 18:31 14.19977 -15.29249 10785 ft 301 kts 47°
2026-05-06 18:31 14.21601 -15.27898 10792 ft 302 kts 28°
2026-05-06 18:31 14.23580 -15.27165 10803 ft 303 kts
2026-05-06 18:32 14.25687 -15.27138 10815 ft 304 kts 350°
2026-05-06 18:32 14.27683 -15.27812 10831 ft 304 kts 331°
2026-05-06 18:32 14.29379 -15.29142 10836 ft 303 kts 311°
2026-05-06 18:32 14.30528 -15.30923 10819 ft 303 kts 292°
2026-05-06 18:33 14.31050 -15.33005 10816 ft 302 kts 273°
2026-05-06 18:33 14.30870 -15.35158 10816 ft 301 kts 253°
2026-05-06 18:33 14.30002 -15.37130 10826 ft 300 kts 236°
2026-05-06 18:33 14.28774 -15.38854 10844 ft 300 kts 233°
2026-05-06 18:34 14.27557 -15.40601 10850 ft 301 kts 234°
2026-05-06 18:34 14.26345 -15.42372 10843 ft 301 kts 234°
2026-05-06 18:34 14.25132 -15.44133 10842 ft 300 kts 234°
2026-05-06 18:34 14.23915 -15.45905 10823 ft 299 kts 235°
2026-05-06 18:35 14.22724 -15.47655 10822 ft 299 kts 236°
2026-05-06 18:35 14.21515 -15.49406 10807 ft 299 kts 230°
2026-05-06 18:35 14.19932 -15.50805 10779 ft 300 kts 210°
2026-05-06 18:35 14.18015 -15.51573 10777 ft 300 kts 191°
2026-05-06 18:36 14.15927 -15.51648 10790 ft 300 kts 171°
2026-05-06 18:36 14.13927 -15.51000 10827 ft 299 kts 151°
2026-05-06 18:36 14.12308 -15.49713 11137 ft 304 kts 131°
2026-05-06 18:36 14.11127 -15.47825 11637 ft 320 kts 114°
2026-05-06 18:37 14.10549 -15.45591 12012 ft 332 kts 96°
2026-05-06 18:37 14.10648 -15.43152 12267 ft 348 kts 79°
2026-05-06 18:37 14.11463 -15.40804 12686 ft 355 kts 62°
2026-05-06 18:37 14.12700 -15.38591 13270 ft 357 kts 63°
2026-05-06 18:38 14.13679 -15.36230 13814 ft 360 kts 72°
2026-05-06 18:38 14.14341 -15.33747 14317 ft 363 kts 79°
2026-05-06 18:38 14.14709 -15.31177 14898 ft 364 kts 85°
2026-05-06 18:38 14.14818 -15.28579 15339 ft 369 kts 91°
2026-05-06 18:39 14.14705 -15.25943 15891 ft 370 kts 95°
2026-05-06 18:39 14.14425 -15.23283 16342 ft 374 kts 98°
2026-05-06 18:39 14.14027 -15.20668 16852 ft 375 kts 100°
2026-05-06 18:40 14.12986 -15.15406 17777 ft 380 kts 103°
2026-05-06 18:40 14.12383 -15.12736 18219 ft 383 kts 104°
2026-05-06 18:40 14.11750 -15.10084 18667 ft 385 kts 105°
2026-05-06 18:40 14.11081 -15.07386 19098 ft 388 kts 105°
2026-05-06 18:41 14.10402 -15.04710 19493 ft 391 kts 106°
2026-05-06 18:41 14.09694 -15.01999 19874 ft 395 kts 107°
2026-05-06 18:41 14.08960 -14.99197 20355 ft 409 kts 107°
2026-05-06 18:41 14.08201 -14.96333 21241 ft 414 kts 107°
2026-05-06 18:42 14.07447 -14.93486 21987 ft 420 kts 108°
2026-05-06 18:42 14.06663 -14.90564 22745 ft 426 kts 108°
2026-05-06 18:42 14.05874 -14.87634 23495 ft 430 kts 108°
2026-05-06 18:42 14.05069 -14.84653 24149 ft 437 kts 109°
2026-05-06 18:43 14.04260 -14.81647 24833 ft 441 kts 109°
2026-05-06 18:43 14.03429 -14.78595 25464 ft 446 kts 109°
2026-05-06 18:43 14.02593 -14.75498 26159 ft 448 kts 109°
2026-05-06 18:43 14.01752 -14.72397 26745 ft 453 kts 110°
2026-05-06 18:44 14.00904 -14.69281 27402 ft 456 kts 110°
2026-05-06 18:44 14.00055 -14.66152 27974 ft 459 kts 110°
2026-05-06 18:44 13.99197 -14.63003 28512 ft 463 kts 111°
2026-05-06 18:44 13.98321 -14.59793 29132 ft 465 kts 111°
2026-05-06 18:45 13.97431 -14.56582 29655 ft 469 kts 110°
2026-05-06 18:45 13.96533 -14.53340 30079 ft 476 kts 110°
2026-05-06 18:45 13.95641 -14.50087 30483 ft 481 kts 110°
2026-05-06 18:45 13.94729 -14.46738 30902 ft 486 kts 110°
2026-05-06 18:46 13.93810 -14.43392 31291 ft 492 kts 109°
2026-05-06 18:46 13.92881 -14.39997 31672 ft 497 kts 109°
2026-05-06 18:46 13.91945 -14.36551 32040 ft 502 kts 109°
2026-05-06 18:46 13.90991 -14.33080 32408 ft 506 kts 110°
2026-05-06 18:47 13.90046 -14.29590 32777 ft 510 kts 109°
2026-05-06 18:47 13.89091 -14.26093 33175 ft 513 kts 110°
2026-05-06 18:47 13.88133 -14.22590 33565 ft 516 kts 109°
2026-05-06 18:47 13.87121 -14.19000 33974 ft 518 kts 110°
2026-05-06 18:48 13.86152 -14.15472 34355 ft 521 kts 110°
2026-05-06 18:48 13.85143 -14.11889 34672 ft 522 kts 109°
2026-05-06 18:48 13.84161 -14.08293 34808 ft 517 kts 109°
2026-05-06 18:49 13.82245 -14.01290 34787 ft 507 kts 109°
2026-05-06 18:49 13.80352 -13.94362 34767 ft 506 kts 109°
2026-05-06 18:50 13.78445 -13.87372 34794 ft 507 kts 109°
2026-05-06 18:50 13.76548 -13.80429 34793 ft 507 kts 109°
2026-05-06 18:51 13.74620 -13.73441 34780 ft 507 kts 109°
2026-05-06 18:51 13.72771 -13.66467 34797 ft 509 kts 108°
2026-05-06 18:52 13.72116 -13.59225 34763 ft 517 kts 85°
2026-05-06 18:52 13.72835 -13.55636 34778 ft 519 kts 72°
2026-05-06 18:52 13.74259 -13.52202 34788 ft 518 kts 59°
2026-05-06 18:52 13.76265 -13.49202 34790 ft 515 kts 47°
2026-05-06 18:53 13.78845 -13.46638 34794 ft 510 kts 34°
2026-05-06 18:53 13.81830 -13.44689 34800 ft 505 kts 21°
2026-05-06 18:53 13.85067 -13.43423 34800 ft 498 kts
2026-05-06 18:53 13.88478 -13.42864 34810 ft 488 kts 356°
2026-05-06 18:54 13.91801 -13.43036 34807 ft 478 kts 344°
2026-05-06 18:54 13.95001 -13.43922 34806 ft 466 kts 331°
2026-05-06 18:54 13.97815 -13.45435 34806 ft 455 kts 319°
2026-05-06 18:54 14.00217 -13.47543 34804 ft 444 kts 306°
2026-05-06 18:55 14.02014 -13.50062 34799 ft 434 kts 294°
2026-05-06 18:55 14.03154 -13.52857 34799 ft 426 kts 281°
2026-05-06 18:55 14.03613 -13.55836 34805 ft 421 kts 268°
2026-05-06 18:55 14.03357 -13.58816 34806 ft 418 kts 256°
2026-05-06 18:56 14.02398 -13.61640 34807 ft 417 kts 243°
2026-05-06 18:56 14.00796 -13.64131 34806 ft 419 kts 231°
2026-05-06 18:56 13.98640 -13.66159 34806 ft 423 kts 218°
2026-05-06 18:56 13.96044 -13.67615 34805 ft 430 kts 205°
2026-05-06 18:57 13.93132 -13.68345 34776 ft 442 kts 190°
2026-05-06 18:57 13.86862 -13.68105 34841 ft 453 kts 179°
2026-05-06 18:58 13.80582 -13.67309 34822 ft 452 kts 179°
2026-05-06 18:58 13.74330 -13.66569 34803 ft 451 kts 179°
2026-05-06 18:59 13.68088 -13.65629 34752 ft 461 kts 167°
2026-05-06 18:59 13.65182 -13.64160 34763 ft 474 kts 150°
2026-05-06 18:59 13.62674 -13.61832 34781 ft 490 kts 134°
2026-05-06 18:59 13.60831 -13.58854 34806 ft 502 kts 118°
2026-05-06 19:00 13.59787 -13.55457 34815 ft 510 kts 102°
2026-05-06 19:00 13.59615 -13.51810 34802 ft 515 kts 86°
2026-05-06 19:00 13.60357 -13.48219 34797 ft 518 kts 70°
2026-05-06 19:00 13.61334 -13.45982 34796 ft 518 kts 59°
2026-05-06 19:01 13.63651 -13.41590 34799 ft 520 kts 69°
2026-05-06 19:01 13.64587 -13.38060 34820 ft 517 kts 82°
2026-05-06 19:01 13.64920 -13.34366 34829 ft 515 kts 91°
2026-05-06 19:02 13.64488 -13.27097 34807 ft 511 kts 100°
2026-05-06 19:02 13.63448 -13.19931 34800 ft 508 kts 103°
2026-05-06 19:03 13.62180 -13.12809 34806 ft 509 kts 104°
2026-05-06 19:03 13.60819 -13.05651 34802 ft 510 kts 104°
2026-05-06 19:04 13.59450 -12.98557 34812 ft 509 kts 104°
2026-05-06 19:04 13.58065 -12.91435 34813 ft 508 kts 104°
2026-05-06 19:05 13.56658 -12.84367 34807 ft 506 kts 105°
2026-05-06 19:05 13.55260 -12.77258 34812 ft 509 kts 104°
2026-05-06 19:06 13.53914 -12.70130 34808 ft 509 kts 104°
2026-05-06 19:06 13.52476 -12.63092 34802 ft 505 kts 104°
2026-05-06 19:07 13.51061 -12.56004 34812 ft 505 kts 104°
2026-05-06 19:07 13.49651 -12.48958 34821 ft 511 kts 105°
2026-05-06 19:07 13.48942 -12.45356 34862 ft 523 kts 105°
2026-05-06 19:08 13.48204 -12.41671 34887 ft 535 kts 105°
2026-05-06 19:08 13.46678 -12.34087 34886 ft 550 kts 105°
2026-05-06 19:09 13.45158 -12.26345 34835 ft 555 kts 104°
2026-05-06 19:09 13.43617 -12.18600 34810 ft 554 kts 105°
2026-05-06 19:10 13.42053 -12.10864 34816 ft 553 kts 105°
2026-05-06 19:10 13.40491 -12.03111 34815 ft 553 kts 105°
2026-05-06 19:11 13.38945 -11.95404 34823 ft 553 kts 105°
2026-05-06 19:11 13.37395 -11.87702 34826 ft 554 kts 105°
2026-05-06 19:12 13.35844 -11.80009 34816 ft 553 kts 105°
2026-05-06 19:12 13.34285 -11.72279 34819 ft 554 kts 105°
2026-05-06 19:13 13.32725 -11.64572 34818 ft 552 kts 104°
2026-05-06 19:13 13.31155 -11.56821 34818 ft 553 kts 105°
2026-05-06 19:14 13.29592 -11.49136 34825 ft 553 kts 105°
2026-05-06 19:14 13.28022 -11.41418 34827 ft 553 kts 104°
2026-05-06 19:15 13.26468 -11.33779 34823 ft 551 kts 105°
2026-05-06 19:15 13.24899 -11.26088 34835 ft 550 kts 105°
2026-05-06 19:16 13.23331 -11.18418 34836 ft 550 kts 105°
2026-05-06 19:16 13.21752 -11.10698 34845 ft 550 kts 105°
2026-05-06 19:17 13.20176 -11.03047 34848 ft 551 kts 105°
2026-05-06 19:17 13.18614 -10.95364 34852 ft 551 kts 105°
2026-05-06 19:18 13.17034 -10.87686 34838 ft 552 kts 105°
2026-05-06 19:18 13.15446 -10.80015 34835 ft 549 kts 104°
2026-05-06 19:19 13.13878 -10.72361 34823 ft 548 kts 105°
2026-05-06 19:19 13.12290 -10.64715 34824 ft 549 kts 105°
2026-05-06 19:20 13.10715 -10.57107 34832 ft 549 kts 105°
2026-05-06 19:20 13.09133 -10.49468 34827 ft 548 kts 104°
2026-05-06 19:21 13.07584 -10.41853 34835 ft 547 kts 104°
2026-05-06 19:21 13.05972 -10.34198 34838 ft 548 kts 104°
2026-05-06 19:22 13.04385 -10.26601 34845 ft 544 kts 104°
2026-05-06 19:22 13.02815 -10.19054 34835 ft 544 kts 105°
2026-05-06 19:23 13.01234 -10.11480 34855 ft 545 kts 105°
2026-05-06 19:23 12.99661 -10.03912 34853 ft 544 kts 105°
2026-05-06 19:24 12.98051 -9.96310 34849 ft 543 kts 104°
2026-05-06 19:24 12.96482 -9.88786 34857 ft 542 kts 104°
2026-05-06 19:25 12.94874 -9.81154 34845 ft 542 kts 104°
2026-05-06 19:25 12.93287 -9.73599 34854 ft 543 kts 104°
2026-05-06 19:26 12.91698 -9.66048 34840 ft 541 kts 104°
2026-05-06 19:26 12.90106 -9.58518 34846 ft 540 kts 104°
2026-05-06 19:27 12.88500 -9.50920 34848 ft 540 kts 104°
2026-05-06 19:27 12.86912 -9.43403 34856 ft 539 kts 104°
2026-05-06 19:28 12.85303 -9.35868 34855 ft 540 kts 104°
2026-05-06 19:28 12.83722 -9.28370 34843 ft 538 kts 104°
2026-05-06 19:29 12.82145 -9.20927 34857 ft 537 kts 105°
2026-05-06 19:29 12.80545 -9.13424 34862 ft 537 kts 105°
2026-05-06 19:30 12.78949 -9.05955 34861 ft 537 kts 105°
2026-05-06 19:30 12.77351 -8.98467 34855 ft 536 kts 104°
2026-05-06 19:31 12.75756 -8.91008 34857 ft 536 kts 105°
2026-05-06 19:31 12.73356 -8.79834 34864 ft 536 kts 104°
2026-05-06 19:32 12.71751 -8.72339 34874 ft 537 kts 104°
2026-05-06 19:32 12.70131 -8.64804 34874 ft 536 kts 104°
2026-05-06 19:33 12.68574 -8.57548 34801 ft 503 kts 104°
2026-05-06 19:33 12.67844 -8.54158 34661 ft 478 kts 105°
2026-05-06 19:33 12.67153 -8.50934 34494 ft 454 kts 105°
2026-05-06 19:34 12.66475 -8.47833 34363 ft 431 kts 105°
2026-05-06 19:34 12.65846 -8.44915 34035 ft 414 kts 105°
2026-05-06 19:34 12.65233 -8.42088 33471 ft 402 kts 105°
2026-05-06 19:34 12.64642 -8.39338 32907 ft 392 kts 105°
2026-05-06 19:35 12.63895 -8.36740 32387 ft 377 kts 121°
2026-05-06 19:35 12.62431 -8.34548 31963 ft 370 kts 137°
2026-05-06 19:35 12.60643 -8.32634 31562 ft 372 kts 137°
2026-05-06 19:35 12.58868 -8.30669 31123 ft 375 kts 136°
2026-05-06 19:36 12.57126 -8.28744 30701 ft 371 kts 137°
2026-05-06 19:36 12.55373 -8.26851 30224 ft 363 kts 137°
2026-05-06 19:36 12.53638 -8.24971 29758 ft 361 kts 136°
2026-05-06 19:36 12.51941 -8.23119 29340 ft 359 kts 136°
2026-05-06 19:37 12.50178 -8.21197 28949 ft 376 kts 136°
2026-05-06 19:37 12.48405 -8.19251 28496 ft 369 kts 135°
2026-05-06 19:37 12.46793 -8.17258 28042 ft 361 kts 129°
2026-05-06 19:37 12.45826 -8.15869 27731 ft 355 kts 128°
2026-05-06 19:38 12.43938 -8.13231 27099 ft 343 kts 129°
2026-05-06 19:38 12.42508 -8.11220 26658 ft 347 kts 126°
2026-05-06 19:38 12.41433 -8.09008 26190 ft 353 kts 105°
2026-05-06 19:38 12.41206 -8.06548 25763 ft 355 kts 83°
2026-05-06 19:39 12.41882 -8.04128 25318 ft 354 kts 61°
2026-05-06 19:39 12.43347 -8.02163 24871 ft 345 kts 38°
2026-05-06 19:39 12.45326 -8.00888 24439 ft 339 kts 26°
2026-05-06 19:39 12.47365 -7.99668 24040 ft 339 kts 32°
2026-05-06 19:40 12.49329 -7.98322 23584 ft 334 kts 32°
2026-05-06 19:40 12.51396 -7.97298 23086 ft 330 kts 11°
2026-05-06 19:40 12.53657 -7.97151 22644 ft 324 kts 348°
2026-05-06 19:40 12.55728 -7.97893 22172 ft 312 kts 324°
2026-05-06 19:41 12.57281 -7.99391 21743 ft 309 kts 301°
2026-05-06 19:41 12.58092 -8.01399 21307 ft 309 kts 277°
2026-05-06 19:41 12.58019 -8.03569 20867 ft 307 kts 253°
2026-05-06 19:41 12.57075 -8.05515 20427 ft 309 kts 231°
2026-05-06 19:42 12.55647 -8.07156 20042 ft 306 kts 228°
2026-05-06 19:42 12.54291 -8.08818 19573 ft 300 kts 231°
2026-05-06 19:42 12.52764 -8.10228 19077 ft 302 kts 208°
2026-05-06 19:42 12.50769 -8.10876 18645 ft 301 kts 185°
2026-05-06 19:43 12.48692 -8.10992 18215 ft 302 kts 183°
2026-05-06 19:43 12.46523 -8.11154 17836 ft 311 kts 185°
2026-05-06 19:43 12.44386 -8.11344 17347 ft 306 kts 184°
2026-05-06 19:43 12.42259 -8.11513 16890 ft 300 kts 183°
2026-05-06 19:44 12.40215 -8.11365 16383 ft 292 kts 161°
2026-05-06 19:44 12.38497 -8.10401 15938 ft 284 kts 135°
2026-05-06 19:44 12.37383 -8.08763 15487 ft 279 kts 108°
2026-05-06 19:44 12.37120 -8.06822 15046 ft 283 kts 83°
2026-05-06 19:45 12.37743 -8.04939 14604 ft 280 kts 56°
2026-05-06 19:45 12.39117 -8.03560 14156 ft 280 kts 30°
2026-05-06 19:45 12.40952 -8.02959 13719 ft 278 kts
2026-05-06 19:45 12.42841 -8.03265 13255 ft 276 kts 336°
2026-05-06 19:46 12.44393 -8.04420 12826 ft 279 kts 310°
2026-05-06 19:46 12.45264 -8.06149 12362 ft 277 kts 282°
2026-05-06 19:46 12.45273 -8.08101 11923 ft 283 kts 255°
2026-05-06 19:46 12.44407 -8.09894 11476 ft 281 kts 228°
2026-05-06 19:47 12.42976 -8.11223 11039 ft 276 kts 218°
2026-05-06 19:47 12.41573 -8.12552 10541 ft 274 kts 236°
2026-05-06 19:47 12.40861 -8.14311 10089 ft 273 kts 265°
2026-05-06 19:47 12.41016 -8.16200 9646 ft 268 kts 293°
2026-05-06 19:48 12.42013 -8.17779 9252 ft 263 kts 322°
2026-05-06 19:48 12.43573 -8.18631 9034 ft 249 kts 351°
2026-05-06 19:48 12.45258 -8.18573 8947 ft 242 kts 20°
2026-05-06 19:48 12.46638 -8.17711 8705 ft 231 kts 49°
2026-05-06 19:49 12.47358 -8.16273 8353 ft 225 kts 80°
2026-05-06 19:49 12.47198 -8.14718 8016 ft 222 kts 112°
2026-05-06 19:49 12.46243 -8.13493 7523 ft 228 kts 144°
2026-05-06 19:49 12.44856 -8.12712 7110 ft 226 kts 150°
2026-05-06 19:50 12.43484 -8.11958 6689 ft 224 kts 147°
2026-05-06 19:50 12.42153 -8.11120 6270 ft 222 kts 141°
2026-05-06 19:50 12.41200 -8.09941 5781 ft 216 kts 107°
2026-05-06 19:50 12.41059 -8.08461 5312 ft 210 kts 73°
2026-05-06 19:51 12.41755 -8.07205 4877 ft 206 kts 40°
2026-05-06 19:51 12.43013 -8.06625 4549 ft 196 kts
2026-05-06 19:51 12.44322 -8.06914 4124 ft 198 kts 330°
2026-05-06 19:51 12.45233 -8.07979 3605 ft 207 kts 294°
2026-05-06 19:52 12.45342 -8.09401 3270 ft 204 kts 256°
2026-05-06 19:52 12.44604 -8.10586 3180 ft 200 kts 217°
2026-05-06 19:52 12.43345 -8.11212 3288 ft 202 kts 198°
2026-05-06 19:52 12.42004 -8.11764 3344 ft 210 kts 214°
2026-05-06 19:53 12.41069 -8.12877 3360 ft 209 kts 250°
2026-05-06 19:53 12.40916 -8.14333 3355 ft 204 kts 286°
2026-05-06 19:53 12.41587 -8.15551 3347 ft 197 kts 322°
2026-05-06 19:53 12.42725 -8.16290 3378 ft 195 kts 326°
2026-05-06 19:54 12.43545 -8.17417 3347 ft 203 kts 289°
2026-05-06 19:54 12.43555 -8.18863 3351 ft 208 kts 252°
2026-05-06 19:54 12.42831 -8.20139 3394 ft 208 kts 235°
2026-05-06 19:54 12.41953 -8.21318 3402 ft 210 kts 233°
2026-05-06 19:55 12.41005 -8.22461 3403 ft 210 kts 229°
2026-05-06 19:55 12.39832 -8.23342 3337 ft 211 kts 197°
2026-05-06 19:55 12.38410 -8.23401 3322 ft 205 kts 160°
2026-05-06 19:55 12.37242 -8.22629 3313 ft 198 kts 123°
2026-05-06 19:56 12.36780 -8.21334 3326 ft 192 kts 86°
2026-05-06 19:56 12.37158 -8.20059 3367 ft 188 kts 59°
2026-05-06 19:56 12.37856 -8.18937 3402 ft 190 kts 54°
2026-05-06 19:56 12.38614 -8.17815 3410 ft 190 kts 56°
2026-05-06 19:57 12.39340 -8.16695 3399 ft 189 kts 55°
2026-05-06 19:57 12.40067 -8.15581 3378 ft 188 kts 56°
2026-05-06 19:57 12.40787 -8.14469 3367 ft 188 kts 56°
2026-05-06 19:57 12.41508 -8.13345 3364 ft 188 kts 56°
2026-05-06 19:58 12.42229 -8.12221 3362 ft 188 kts 56°
2026-05-06 19:58 12.42940 -8.11099 3358 ft 188 kts 57°
2026-05-06 19:58 12.43301 -8.09813 3304 ft 192 kts 92°
2026-05-06 19:58 12.43151 -8.08493 3344 ft 183 kts 80°
2026-05-06 19:59 12.43459 -8.07351 3395 ft 168 kts 64°
2026-05-06 19:59 12.44195 -8.06394 3189 ft 164 kts 45°
2026-05-06 19:59 12.45067 -8.05659 2989 ft 167 kts 36°
2026-05-06 19:59 12.46018 -8.04957 2836 ft 160 kts 37°
2026-05-06 20:00 12.46872 -8.04303 2564 ft 158 kts 39°
2026-05-06 20:00 12.47721 -8.03518 2411 ft 164 kts 48°
2026-05-06 20:00 12.48409 -8.02593 2400 ft 160 kts 57°
2026-05-06 20:00 12.49003 -8.01675 2325 ft 153 kts 57°
2026-05-06 20:01 12.49564 -8.00733 2099 ft 159 kts 59°
2026-05-06 20:01 12.50167 -7.99744 1922 ft 163 kts 56°
2026-05-06 20:01 12.50807 -7.98812 1945 ft 159 kts 54°
2026-05-06 20:01 12.51475 -7.97890 1696 ft 162 kts 54°
2026-05-06 20:02 12.52080 -7.96961 1390 ft 156 kts 57°
2026-05-06 20:02 12.52673 -7.96049 1238 ft 152 kts 56°
2026-05-06 20:02 12.53237 -7.95163 1226 ft 140 kts 54°
2026-05-06 20:02 12.53700 -7.94456 1251 ft 88 kts 56°
2026-05-06 20:03 12.53931 -7.94092 1252 ft 49 kts 57°
2026-05-06 20:03 12.54113 -7.93818 1249 ft 30 kts 39°
2026-05-06 20:03 12.54209 -7.93845 1252 ft 10 kts 328°
2026-05-06 20:03 12.54257 -7.93876 1254 ft 5 kts 328°
2026-05-06 20:04 12.54277 -7.93888 1255 ft 3 kts 328°
2026-05-06 20:04 12.54329 -7.93919 1258 ft 11 kts 345°
2026-05-06 20:04 12.54421 -7.93846 1258 ft 26 kts 61°
2026-05-06 20:04 12.54519 -7.93685 1257 ft 8 kts 58°
2026-05-06 20:05 12.54608 -7.93667 1259 ft 18 kts 319°